SCP
0 0 -0 -0 -0 -0 -0 -0 -0 -0 -0 -0 -0 -0 0 0 0 0 0 0 0 0 0 0 0 0 0 0 0 0 0 0 0 0 0 0 0 0 0 0 -0 0 0
-0 0 -0 0 0 0 0 -0 -0 -0 -0 -0 -0 -0 0 0 0 0 0 0 0 0 0 0 0 0 0 0 0 0 0 0 0 0 0 0 0 0 0 0 0 0 0
-0 -0 0 0 0 -0 0 -0 -0 -0 -0 0 0 0 0 0 0 0 0 0 0 0 0 0 0 0 0 0 0 0 0 0 0 0 -0 -0 0 0 0 0 0 0 0
-0 -0 0 -0 -0 -0 -0 -0 -0 0 0 0 0 0 0 0 0 0 0 0 0 0 0 0 0 0 0 0 0 0 0 0 0 -0 0 -0 0 0 0 0 0 0 0
-0 -0 -0 -0 -0 -0 0 0 0 0 0 0 0 0 0 0 0 0 0 0 0 0 0 0 0 0 0 0 0 0 0 0 0 0 0 0 0 0 0 0 0 0 0
-0 -0 0 0 0 0 0 0 0 0 0 0 0 0 0 0 0 0 0 0 0 0 0 0 0 0 0 0 0 0 0 0 0 0 0 0 0 0 0 0 0 0 0
0 0 0 0 0 0 0 0 0 0 0 0 0 0 0 0 0 0 0 0 0 0 0 0 0 0 0 0 0 0 0 0 0 0 0 0 0 1 0 0 0 0 0
0 0 0 0 0 0 0 0 0 0 0 0 0 0 0 0 0 0 0 0 0 0 0 0 0 0 0 0 0 0 0 0 0 0 0 0 1 1 0 0 0 0 0
0 0 0 0 0 0 0 0 0 0 0 0 0 0 0 0 0 0 0 0 0 0 0 0 0 0 0 0 0 0 0 0 0 0 -0 0 1 1 0 0 0 0 0
0 0 0 0 0 0 0 0 0 0 0 0 0 0 0 0 0 0 0 0 0 0 0 0 0 0 0 0 0 0 0 0 0 0 0 1 2 1 0 0 0 0 0
0 0 0 0 0 0 0 0 0 0 0 0 0 0 0 0 0 0 0 0 0 0 0 0 0 0 0 0 0 0 0 0 0 0 0 1 2 1 0 1 0 0 0
0 0 0 0 0 0 0 0 0 0 0 0 0 0 0 0 0 0 0 0 0 0 0 0 0 0 0 0 0 0 0 0 0 0 0 1 0 0 0 1 1 1 0
0 0 0 0 0 0 0 0 0 0 0 0 0 0 0 0 0 0 0 0 0 0 0 0 0 0 0 0 0 0 0 0 0 0 0 0 0 0 0 1 1 1 1
0 0 0 0 0 -0 -0 0 0 0 0 0 0 0 0 0 0 0 0 0 0 0 0 0 0 0 0 0 0 0 0 0 0 0 0 0 0 0 0 1 1 1 1
0 -0 0 0 0 -0 -0 -0 0 0 0 0 0 0 0 0 0 0 0 0 0 0 0 0 0 0 0 0 0 0 0 0 0 0 0 0 0 0 1 1 1 1 1
0 0 0 0 -0 -0 -0 -0 -0 0 0 0 0 0 0 0 0 0 0 0 0 0 0 0 0 0 0 0 0 0 0 0 0 0 0 0 0 0 0 1 1 1 1
0 0 0 0 0 -0 -0 -0 -0 0 0 0 0 0 0 0 0 0 0 0 0 0 0 0 0 0 0 0 0 0 0 0 0 0 0 0 0 0 0 0 1 2 1
0 0 0 0 0 0 0 -0 0 0 0 0 0 0 0 0 0 0 0 0 0 0 0 0 0 0 0 0 0 0 0 0 0 0 0 0 0 0 1 0 0 1 1
0 0 0 0 0 0 0 -0 -0 0 0 0 0 0 0 0 0 0 0 0 0 0 0 0 0 0 0 0 0 0 0 0 0 0 0 0 0 0 0 0 0 0 0
0 0 0 0 0 0 0 -0 0 0 0 0 0 0 0 0 0 0 0 0 0 0 0 0 0 0 0 0 0 0 0 0 0 0 0 0 0 0 0 1 1 0 0
0 0 0 0 0 0 0 0 0 0 0 0 0 0 0 0 0 0 0 0 0 0 0 0 0 0 0 0 0 0 0 0 0 0 0 0 0 0 0 0 0 0 0
0 0 0 0 0 0 0 0 0 0 0 0 0 0 0 0 0 0 0 0 0 0 0 0 0 0 0 0 0 0 0 0 0 0 0 0 0 0 0 0 0 0 0
0 0 0 0 0 0 0 0 0 0 0 0 0 0 0 0 0 0 0 0 0 0 0 0 0 0 0 0 0 0 0 0 0 0 0 0 0 0 0 0 0 -0 0
0 0 0 0 0 0 0 0 0 -0 0 0 0 0 0 0 0 0 0 0 0 -0 -0 0 0 0 0 0 0 0 0 0 0 0 0 0 0 0 0 0 0 0 0
1 0 1 1 1 1 0 0 0 0 0 0 0 0 0 0 0 0 0 0 0 0 0 0 0 0 0 0 0 0 0 0 0 0 0 0 0 1 0 0 0 0 0
0 0 0 0 0 1 1 0 0 0 -0 0 0 0 0 0 0 0 0 0 0 0 0 0 0 0 0 0 0 0 0 0 0 0 0 0 0 0 1 0 0 0 0
Wind_Speed_500mb
18 29 25 22 12 10 12 11 12 12 11 11 11 10 10 10 8 7 8 8 7 8 10 6 5 2 2 4 6 7 6 7 7 6 7 7 9 12 17 21 19 12 16
26 25 26 18 11 11 16 14 14 13 12 11 11 11 12 12 10 7 6 7 8 7 5 5 5 3 2 1 1 1 2 4 7 6 7 5 4 9 15 19 15 13 16
27 25 24 21 18 12 13 14 12 11 14 12 11 10 9 9 9 9 5 4 4 6 6 5 5 6 5 5 5 4 2 5 7 11 11 11 13 6 13 14 16 13 15
28 29 26 22 16 12 9 8 10 14 16 15 14 12 11 9 7 6 5 4 1 2 2 2 6 5 6 8 8 10 9 8 9 14 11 4 4 10 15 15 13 13 14
34 29 24 16 12 11 11 12 14 16 16 17 17 17 15 14 13 13 10 7 5 6 8 11 9 10 10 10 10 11 12 12 11 15 10 20 14 14 12 14 10 11 15
30 26 20 18 17 17 16 16 17 17 18 18 17 16 15 15 15 14 13 14 14 15 15 16 14 14 15 16 16 17 16 14 15 10 16 13 25 22 12 17 17 17 19
30 27 22 20 18 17 17 17 17 17 18 18 18 17 19 20 20 21 22 21 19 19 20 21 21 21 21 22 23 21 21 20 18 17 15 17 22 26 24 21 24 23 23
26 24 23 21 21 20 18 17 16 16 16 17 19 20 21 24 25 25 26 27 26 26 25 24 24 26 26 25 26 28 28 26 25 19 24 26 32 30 26 21 24 26 26
21 20 19 17 29 28 31 20 19 18 18 18 19 20 20 22 25 25 29 30 30 32 33 31 30 30 30 32 31 29 30 31 32 24 30 29 34 34 37 25 21 23 24
21 18 16 15 12 9 20 29 23 19 19 20 20 20 17 18 28 26 25 29 31 34 38 38 38 37 36 34 34 37 36 34 35 31 33 40 40 40 37 34 26 25 24
21 19 17 18 19 17 15 21 24 26 19 22 21 23 17 7 12 15 29 30 29 29 32 33 39 41 41 39 31 35 39 38 30 32 33 45 44 47 45 42 36 30 28
20 18 17 24 28 21 20 17 13 13 10 5 8 12 9 16 15 24 25 37 31 29 22 28 29 31 29 27 26 37 34 29 35 36 41 47 46 46 48 43 44 39 34
19 17 19 23 26 28 23 18 13 10 8 13 13 12 16 15 18 17 16 16 19 23 19 19 18 18 18 21 24 28 34 33 28 34 36 37 43 46 49 49 50 49 44
19 15 13 19 25 29 28 19 13 9 6 7 12 15 14 15 17 16 15 16 17 17 21 21 17 21 21 22 25 33 33 43 39 31 33 40 39 45 52 51 53 55 52
21 21 2 13 24 28 29 23 16 10 9 7 12 14 15 13 18 14 17 17 17 17 18 20 20 22 21 22 23 27 32 36 42 48 49 42 38 47 52 53 51 58 58
13 9 2 9 21 23 24 27 19 16 14 12 12 15 12 12 15 12 13 16 17 18 19 19 21 24 23 23 24 26 30 35 38 41 45 49 56 47 45 54 53 55 59
11 14 6 7 14 26 25 26 22 16 14 14 14 16 15 14 15 16 15 16 18 21 22 22 24 25 27 27 28 27 29 32 38 43 43 39 37 46 47 51 56 52 56
20 18 11 5 11 19 25 23 23 19 14 15 15 14 18 16 17 17 16 17 21 20 21 22 23 27 28 29 31 32 29 31 33 38 43 44 50 42 47 42 48 50 55
27 22 14 12 11 16 18 23 25 26 18 17 16 16 16 19 19 20 16 19 24 19 22 23 24 26 26 28 30 31 32 33 34 35 39 45 46 56 39 32 41 46 47
24 21 25 23 16 18 22 21 28 24 18 18 16 17 21 19 20 22 20 22 25 20 22 25 27 21 24 28 30 31 33 33 33 35 37 40 45 48 50 38 41 40 46
27 29 31 20 22 19 16 19 29 26 20 18 19 19 23 19 21 22 18 22 24 22 27 35 26 26 24 27 30 32 36 32 36 30 33 37 38 47 51 56 47 43 31
40 31 34 27 24 22 18 17 23 21 21 20 22 25 26 21 21 19 24 23 26 25 28 28 27 24 22 26 27 30 33 30 28 32 26 30 37 35 45 40 59 47 50
36 36 30 28 28 26 19 15 22 30 27 19 18 24 31 25 21 21 24 27 24 25 25 27 24 24 28 21 24 20 20 24 34 25 24 34 29 29 36 42 52 62 60
25 40 32 30 29 25 19 13 16 19 21 30 30 30 32 30 22 23 23 24 28 24 31 25 24 26 23 25 25 21 28 31 26 28 18 20 22 30 31 30 43 49 51
22 31 26 32 31 23 21 19 14 20 24 25 28 31 29 26 19 23 19 24 27 21 30 22 26 27 22 27 26 37 33 31 34 38 40 35 25 24 31 34 45 48 59
30 39 29 24 16 16 17 19 20 21 21 25 26 22 18 20 25 28 25 21 24 29 21 21 23 25 22 24 20 28 27 35 36 39 40 44 39 43 35 35 39 39 45
Wind_Direction_500mb
93 138 144 157 118 72 64 65 62 57 48 42 43 42 50 53 51 46 43 52 75 79 76 58 57 58 330 339 338 353 13 63 69 97 113 117 126 122 114 115 116 158 148
113 116 121 125 131 114 92 76 67 65 67 59 47 39 40 56 64 60 66 65 78 95 110 109 121 122 116 169 11 17 90 133 142 137 100 82 140 139 138 148 148 171 155
113 120 121 103 102 100 108 95 89 74 64 58 55 49 39 34 39 55 66 91 107 128 92 147 165 196 201 185 193 198 189 198 181 116 113 160 155 154 165 180 169 180 160
116 113 113 123 127 123 112 82 51 40 34 35 35 34 31 26 22 25 24 20 304 274 287 265 230 219 215 209 206 211 198 201 183 143 108 193 220 212 176 180 193 187 180
106 111 117 117 107 90 72 58 42 34 28 23 21 17 15 9 360 352 346 337 322 298 274 267 262 250 240 233 229 234 231 213 182 162 250 209 170 235 195 179 175 182 159
100 98 107 100 90 77 62 50 37 28 22 15 11 4 1 358 350 339 324 311 306 301 299 293 279 265 260 256 250 243 236 227 203 234 228 229 260 199 233 214 184 192 187
104 97 97 86 73 59 44 29 15 5 357 349 342 340 335 335 332 325 321 317 310 297 288 280 280 274 264 258 254 250 243 229 212 250 250 221 220 251 265 237 204 200 199
108 101 88 71 47 26 21 12 356 343 331 322 318 315 315 316 315 310 305 301 298 295 289 288 285 279 271 266 260 257 253 244 225 252 250 238 228 248 253 225 210 204 203
101 88 75 46 26 8 349 349 341 329 318 311 306 305 307 315 319 308 304 298 293 287 282 276 272 270 270 267 265 261 256 251 244 240 250 248 251 250 246 238 219 209 207
97 84 66 42 39 24 336 328 337 340 330 323 318 312 328 2 346 341 331 303 299 291 285 279 273 266 261 261 263 264 261 259 249 247 247 249 239 246 248 238 228 221 215
97 81 63 42 28 12 357 337 357 350 3 13 355 341 17 329 306 315 300 315 316 306 301 294 288 276 268 262 266 275 263 257 254 252 248 243 245 245 252 236 231 224 222
88 72 42 38 33 19 5 8 349 342 331 15 351 352 345 324 318 345 338 338 343 338 347 326 322 315 306 291 271 280 277 264 256 247 252 252 242 245 250 240 233 229 225
90 78 53 33 20 35 19 17 353 347 344 330 358 353 329 338 315 331 336 324 325 332 332 330 326 316 283 265 254 256 263 261 250 249 263 258 249 243 247 242 234 235 230
85 77 39 28 32 29 30 12 12 351 1 332 319 341 337 332 322 331 326 330 326 324 329 325 320 307 313 291 270 261 259 269 244 244 252 273 255 251 249 242 235 234 235
138 95 35 31 31 30 27 19 10 9 319 333 334 321 336 342 322 337 331 338 335 328 326 324 322 310 308 303 289 271 261 255 257 249 240 259 271 266 254 244 239 235 234
147 170 247 12 18 19 16 17 10 336 339 336 328 300 344 329 316 333 335 325 325 321 315 322 317 319 312 302 291 283 270 256 252 252 254 262 269 272 270 252 242 237 237
180 209 235 1 358 8 4 2 353 337 335 331 322 316 324 328 318 328 323 328 319 316 324 319 317 319 312 303 291 285 277 269 257 252 251 254 260 264 267 266 250 240 236
220 215 230 289 340 345 342 352 352 338 332 328 315 312 302 313 310 318 315 314 307 324 314 317 315 313 306 298 291 286 278 269 263 255 252 253 249 254 264 268 255 241 240
236 216 233 274 308 317 330 346 347 332 334 323 317 311 295 312 308 314 312 302 306 318 314 313 309 306 306 299 292 285 279 274 266 261 254 250 250 246 253 261 267 245 237
238 217 238 271 267 292 335 325 335 332 319 318 316 302 311 301 306 303 303 300 307 300 301 296 298 305 313 303 294 288 282 273 266 261 257 252 248 249 242 249 251 252 244
234 248 276 265 259 268 300 321 330 325 311 306 310 311 305 300 303 297 303 298 298 291 292 299 313 301 313 310 302 296 291 276 265 261 256 252 250 246 243 248 247 244 252
246 261 254 260 245 254 278 291 318 333 318 292 290 295 308 298 294 293 291 288 295 293 295 301 300 310 313 313 313 303 291 289 266 241 259 252 249 248 248 232 246 238 245
248 243 251 249 240 242 250 296 312 315 284 289 297 302 295 289 288 287 288 291 289 292 290 289 306 308 309 307 303 301 310 291 311 286 258 248 250 250 247 246 238 245 239
243 236 231 241 237 241 244 268 290 321 296 296 291 286 285 281 260 283 276 285 285 281 281 287 297 300 305 308 299 309 291 289 289 288 269 250 253 254 253 240 239 233 232
284 231 235 246 224 231 230 246 287 312 296 296 288 294 300 303 278 291 279 279 286 285 283 292 299 290 300 309 322 323 301 289 284 269 274 270 264 255 251 248 242 231 233
292 305 309 303 195 218 226 250 269 292 295 288 296 296 296 297 309 301 280 283 282 283 289 293 289 293 302 302 314 335 330 308 283 276 264 275 269 263 256 253 242 238 249
Wind_Speed_850mb
18 29 25 22 12 10 12 11 12 12 11 11 11 10 10 10 8 7 8 8 7 8 10 6 5 2 2 4 6 7 6 7 7 6 7 7 9 12 17 21 19 12 16
26 25 26 18 11 11 16 14 14 13 12 11 11 11 12 12 10 7 6 7 8 7 5 5 5 3 2 1 1 1 2 4 7 6 7 5 4 9 15 19 15 13 16
27 25 24 21 18 12 13 14 12 11 14 12 11 10 9 9 9 9 5 4 4 6 6 5 5 6 5 5 5 4 2 5 7 11 11 11 13 6 13 14 16 13 15
28 29 26 22 16 12 9 8 10 14 16 15 14 12 11 9 7 6 5 4 1 2 2 2 6 5 6 8 8 10 9 8 9 14 11 4 4 10 15 15 13 13 14
34 29 24 16 12 11 11 12 14 16 16 17 17 17 15 14 13 13 10 7 5 6 8 11 9 10 10 10 10 11 12 12 11 15 10 20 14 14 12 14 10 11 15
30 26 20 18 17 17 16 16 17 17 18 18 17 16 15 15 15 14 13 14 14 15 15 16 14 14 15 16 16 17 16 14 15 10 16 13 25 22 12 17 17 17 19
30 27 22 20 18 17 17 17 17 17 18 18 18 17 19 20 20 21 22 21 19 19 20 21 21 21 21 22 23 21 21 20 18 17 15 17 22 26 24 21 24 23 23
26 24 23 21 21 20 18 17 16 16 16 17 19 20 21 24 25 25 26 27 26 26 25 24 24 26 26 25 26 28 28 26 25 19 24 26 32 30 26 21 24 26 26
21 20 19 17 29 28 31 20 19 18 18 18 19 20 20 22 25 25 29 30 30 32 33 31 30 30 30 32 31 29 30 31 32 24 30 29 34 34 37 25 21 23 24
21 18 16 15 12 9 20 29 23 19 19 20 20 20 17 18 28 26 25 29 31 34 38 38 38 37 36 34 34 37 36 34 35 31 33 40 40 40 37 34 26 25 24
21 19 17 18 19 17 15 21 24 26 19 22 21 23 17 7 12 15 29 30 29 29 32 33 39 41 41 39 31 35 39 38 30 32 33 45 44 47 45 42 36 30 28
20 18 17 24 28 21 20 17 13 13 10 5 8 12 9 16 15 24 25 37 31 29 22 28 29 31 29 27 26 37 34 29 35 36 41 47 46 46 48 43 44 39 34
19 17 19 23 26 28 23 18 13 10 8 13 13 12 16 15 18 17 16 16 19 23 19 19 18 18 18 21 24 28 34 33 28 34 36 37 43 46 49 49 50 49 44
19 15 13 19 25 29 28 19 13 9 6 7 12 15 14 15 17 16 15 16 17 17 21 21 17 21 21 22 25 33 33 43 39 31 33 40 39 45 52 51 53 55 52
21 21 2 13 24 28 29 23 16 10 9 7 12 14 15 13 18 14 17 17 17 17 18 20 20 22 21 22 23 27 32 36 42 48 49 42 38 47 52 53 51 58 58
13 9 2 9 21 23 24 27 19 16 14 12 12 15 12 12 15 12 13 16 17 18 19 19 21 24 23 23 24 26 30 35 38 41 45 49 56 47 45 54 53 55 59
11 14 6 7 14 26 25 26 22 16 14 14 14 16 15 14 15 16 15 16 18 21 22 22 24 25 27 27 28 27 29 32 38 43 43 39 37 46 47 51 56 52 56
20 18 11 5 11 19 25 23 23 19 14 15 15 14 18 16 17 17 16 17 21 20 21 22 23 27 28 29 31 32 29 31 33 38 43 44 50 42 47 42 48 50 55
27 22 14 12 11 16 18 23 25 26 18 17 16 16 16 19 19 20 16 19 24 19 22 23 24 26 26 28 30 31 32 33 34 35 39 45 46 56 39 32 41 46 47
24 21 25 23 16 18 22 21 28 24 18 18 16 17 21 19 20 22 20 22 25 20 22 25 27 21 24 28 30 31 33 33 33 35 37 40 45 48 50 38 41 40 46
27 29 31 20 22 19 16 19 29 26 20 18 19 19 23 19 21 22 18 22 24 22 27 35 26 26 24 27 30 32 36 32 36 30 33 37 38 47 51 56 47 43 31
40 31 34 27 24 22 18 17 23 21 21 20 22 25 26 21 21 19 24 23 26 25 28 28 27 24 22 26 27 30 33 30 28 32 26 30 37 35 45 40 59 47 50
36 36 30 28 28 26 19 15 22 30 27 19 18 24 31 25 21 21 24 27 24 25 25 27 24 24 28 21 24 20 20 24 34 25 24 34 29 29 36 42 52 62 60
25 40 32 30 29 25 19 13 16 19 21 30 30 30 32 30 22 23 23 24 28 24 31 25 24 26 23 25 25 21 28 31 26 28 18 20 22 30 31 30 43 49 51
22 31 26 32 31 23 21 19 14 20 24 25 28 31 29 26 19 23 19 24 27 21 30 22 26 27 22 27 26 37 33 31 34 38 40 35 25 24 31 34 45 48 59
30 39 29 24 16 16 17 19 20 21 21 25 26 22 18 20 25 28 25 21 24 29 21 21 23 25 22 24 20 28 27 35 36 39 40 44 39 43 35 35 39 39 45
Wind_Direction_850mb
93 138 144 157 118 72 64 65 62 57 48 42 43 42 50 53 51 46 43 52 75 79 76 58 57 58 330 339 338 353 13 63 69 97 113 117 126 122 114 115 116 158 148
113 116 121 125 131 114 92 76 67 65 67 59 47 39 40 56 64 60 66 65 78 95 110 109 121 122 116 169 11 17 90 133 142 137 100 82 140 139 138 148 148 171 155
113 120 121 103 102 100 108 95 89 74 64 58 55 49 39 34 39 55 66 91 107 128 92 147 165 196 201 185 193 198 189 198 181 116 113 160 155 154 165 180 169 180 160
116 113 113 123 127 123 112 82 51 40 34 35 35 34 31 26 22 25 24 20 304 274 287 265 230 219 215 209 206 211 198 201 183 143 108 193 220 212 176 180 193 187 180
106 111 117 117 107 90 72 58 42 34 28 23 21 17 15 9 360 352 346 337 322 298 274 267 262 250 240 233 229 234 231 213 182 162 250 209 170 235 195 179 175 182 159
100 98 107 100 90 77 62 50 37 28 22 15 11 4 1 358 350 339 324 311 306 301 299 293 279 265 260 256 250 243 236 227 203 234 228 229 260 199 233 214 184 192 187
104 97 97 86 73 59 44 29 15 5 357 349 342 340 335 335 332 325 321 317 310 297 288 280 280 274 264 258 254 250 243 229 212 250 250 221 220 251 265 237 204 200 199
108 101 88 71 47 26 21 12 356 343 331 322 318 315 315 316 315 310 305 301 298 295 289 288 285 279 271 266 260 257 253 244 225 252 250 238 228 248 253 225 210 204 203
101 88 75 46 26 8 349 349 341 329 318 311 306 305 307 315 319 308 304 298 293 287 282 276 272 270 270 267 265 261 256 251 244 240 250 248 251 250 246 238 219 209 207
97 84 66 42 39 24 336 328 337 340 330 323 318 312 328 2 346 341 331 303 299 291 285 279 273 266 261 261 263 264 261 259 249 247 247 249 239 246 248 238 228 221 215
97 81 63 42 28 12 357 337 357 350 3 13 355 341 17 329 306 315 300 315 316 306 301 294 288 276 268 262 266 275 263 257 254 252 248 243 245 245 252 236 231 224 222
88 72 42 38 33 19 5 8 349 342 331 15 351 352 345 324 318 345 338 338 343 338 347 326 322 315 306 291 271 280 277 264 256 247 252 252 242 245 250 240 233 229 225
90 78 53 33 20 35 19 17 353 347 344 330 358 353 329 338 315 331 336 324 325 332 332 330 326 316 283 265 254 256 263 261 250 249 263 258 249 243 247 242 234 235 230
85 77 39 28 32 29 30 12 12 351 1 332 319 341 337 332 322 331 326 330 326 324 329 325 320 307 313 291 270 261 259 269 244 244 252 273 255 251 249 242 235 234 235
138 95 35 31 31 30 27 19 10 9 319 333 334 321 336 342 322 337 331 338 335 328 326 324 322 310 308 303 289 271 261 255 257 249 240 259 271 266 254 244 239 235 234
147 170 247 12 18 19 16 17 10 336 339 336 328 300 344 329 316 333 335 325 325 321 315 322 317 319 312 302 291 283 270 256 252 252 254 262 269 272 270 252 242 237 237
180 209 235 1 358 8 4 2 353 337 335 331 322 316 324 328 318 328 323 328 319 316 324 319 317 319 312 303 291 285 277 269 257 252 251 254 260 264 267 266 250 240 236
220 215 230 289 340 345 342 352 352 338 332 328 315 312 302 313 310 318 315 314 307 324 314 317 315 313 306 298 291 286 278 269 263 255 252 253 249 254 264 268 255 241 240
236 216 233 274 308 317 330 346 347 332 334 323 317 311 295 312 308 314 312 302 306 318 314 313 309 306 306 299 292 285 279 274 266 261 254 250 250 246 253 261 267 245 237
238 217 238 271 267 292 335 325 335 332 319 318 316 302 311 301 306 303 303 300 307 300 301 296 298 305 313 303 294 288 282 273 266 261 257 252 248 249 242 249 251 252 244
234 248 276 265 259 268 300 321 330 325 311 306 310 311 305 300 303 297 303 298 298 291 292 299 313 301 313 310 302 296 291 276 265 261 256 252 250 246 243 248 247 244 252
246 261 254 260 245 254 278 291 318 333 318 292 290 295 308 298 294 293 291 288 295 293 295 301 300 310 313 313 313 303 291 289 266 241 259 252 249 248 248 232 246 238 245
248 243 251 249 240 242 250 296 312 315 284 289 297 302 295 289 288 287 288 291 289 292 290 289 306 308 309 307 303 301 310 291 311 286 258 248 250 250 247 246 238 245 239
243 236 231 241 237 241 244 268 290 321 296 296 291 286 285 281 260 283 276 285 285 281 281 287 297 300 305 308 299 309 291 289 289 288 269 250 253 254 253 240 239 233 232
284 231 235 246 224 231 230 246 287 312 296 296 288 294 300 303 278 291 279 279 286 285 283 292 299 290 300 309 322 323 301 289 284 269 274 270 264 255 251 248 242 231 233
292 305 309 303 195 218 226 250 269 292 295 288 296 296 296 297 309 301 280 283 282 283 289 293 289 293 302 302 314 335 330 308 283 276 264 275 269 263 256 253 242 238 249